DW7779 Weather Reports


time (UTC)temp
F
wind
direction
speed
knots
gust
knots
rain 1hr
in
rain 24hr
in
rain mn
in
humidity
%
barometer
mb
20260503021535 57 0.9 1.7 0.22 0.34 0.34 97 1009.2
20260503020033 57 1.7 3.5 0.22 0.33 0.33 96 1009.0
20260503014531 57 1.7 4.3 0.23 0.31 0.31 95 1009.3
20260503013034 60 0.9 4.3 0.14 0.22 0.22 95 1009.2
20260503011524 62 0.9 2.6 0.08 0.12 0.12 96 1008.9
20260503010027 62 0.0 1.7 0.06 0.10 0.10 96 1008.8
20260503004524 61 0.0 0.0 0.06 0.09 0.09 96 1008.7
20260503003033 61 0.0 1.7 0.06 0.08 0.08 96 1008.5
20260503001521 61 0.9 3.5 0.02 0.04 0.04 95 1008.7
20260503000022 61 0.9 4.3 0.04 0.04 0.04 93 1008.3
20260502234521 62 0.0 3.5 0.03 0.03 0.03 91 1008.8
20260502233018 62 0.9 4.3 0.02 0.02 0.02 90 1008.9
20260502231517 62 1.7 5.2 0.02 0.02 0.02 89 1008.6
20260502230013 65 1.7 6.1 0.00 0.00 0.00 80 1009.3
20260502224512 65 1.7 4.3 0.00 0.00 0.00 78 1009.0
20260502223011 65 1.7 4.3 0.00 0.00 0.00 79 1008.7
20260502221512 64 0.0 3.5 0.00 0.00 0.00 81 1008.4
20260502220018 63 0.0 1.7 0.00 0.00 0.00 82 1008.4
20260502214508 63 0.0 1.7 0.00 0.00 0.00 82 1009.0
20260502213012 63 0.0 2.6 0.00 0.00 0.00 82 1009.2
20260502211505 63 0.0 3.5 0.00 0.00 0.00 81 1008.9
20260502210004 64 0.9 4.3 0.00 0.00 0.00 81 1009.3
20260502204502 64 0.9 3.5 0.00 0.00 0.00 78 1009.3
20260502203119 65 1.7 4.3 0.00 0.00 0.00 77 1009.3
20260502201613 66 0.9 5.2 0.00 0.00 0.00 74 1009.2
20260502200101 66 0.9 3.5 0.00 0.00 0.00 71 1009.3
20260502194559 66 0.9 3.5 0.00 0.00 0.00 71 1009.5
20260502193106 66 0.0 5.2 0.00 0.00 0.00 71 1009.6
20260502191552 66 0.0 2.6 0.00 0.00 0.00 71 1009.8
20260502190051 66 0.0 2.6 0.00 0.00 0.00 71 1010.0
20260502184556 66 0.0 2.6 0.00 0.00 0.00 71 1009.7
20260502183048 66 0.9 2.6 0.00 0.00 0.00 71 1009.7
20260502181547 66 0.9 3.5 0.00 0.00 0.00 69 1009.7
20260502163037 66 0.0 1.7 0.00 0.00 0.00 69 1010.7
20260502161537 66 0.9 2.6 0.00 0.00 0.00 69 1010.7
20260502151529 66 0.0 2.6 0.00 0.00 0.00 69 1011.2
20260502123015 68 0.9 3.5 0.00 0.00 0.00 65 1012.4
20260502121515 68 0.9 4.3 0.00 0.00 0.00 64 1012.5
20260502114513 68 1.7 6.1 0.00 0.00 0.00 62 1013.0
20260502113012 68 0.9 2.6 0.00 0.00 0.00 61 1012.8
20260502111511 68 0.0 3.5 0.00 0.00 0.00 60 1012.8
20260502110011 68 0.0 2.6 0.00 0.00 0.00 59 1012.9
20260502104511 69 0.0 2.6 0.00 0.00 0.00 58 1012.7
20260502103014 69 0.0 0.9 0.00 0.00 0.00 58 1012.7
20260502101509 69 0.0 0.9 0.00 0.00 0.00 57 1012.8
20260502091511 71 0.0 2.6 0.00 0.00 0.00 53 1013.0
20260502071503 73 0.9 3.5 0.00 0.00 0.00 48 1012.5
20260502070005 73 0.0 4.3 0.00 0.00 0.00 48 1012.5
20260502064504 73 0.9 3.5 0.00 0.00 0.00 47 1012.3
20260502063123 74 1.7 5.2 0.00 0.00 0.00 46 1012.4
20260502061559 75 1.7 5.2 0.00 0.00 0.00 45 1012.4
20260502060059 76 1.7 5.2 0.00 0.00 0.00 43 1012.2
20260502054612 78 1.7 6.1 0.00 0.00 0.00 41 1012.3
20260502053057 79 0.9 6.1 0.00 0.00 0.00 40 1012.3
20260502051554 77 2.6 6.1 0.00 0.00 0.00 41 1012.3
20260502050052 77 1.7 7.0 0.00 0.00 0.00 41 1012.2
20260502044550 77 0.9 4.3 0.00 0.00 0.00 43 1012.3
20260502043103 76 2.6 6.1 0.00 0.00 0.00 44 1012.3
20260502041609 75 0.9 3.5 0.00 0.00 0.00 47 1012.6
20260502040051 76 1.7 7.8 0.00 0.00 0.00 46 1012.8
20260502034544 74 0.9 5.2 0.00 0.00 0.00 47 1012.9
20260502033036 74 2.6 5.2 0.00 0.00 0.00 47 1013.3
20260502031533 73 1.7 4.3 0.00 0.00 0.00 49 1013.6
20260502030036 72 0.9 3.5 0.00 0.00 0.00 51 1014.0
20260502024526 72 0.9 4.3 0.00 0.00 0.00 51 1014.3
20260502023031 72 2.6 4.3 0.00 0.00 0.00 50 1014.5